Index of /20260429/WXO-DD/model_gdps/15km/12/126
Name Last modified Size Description
Parent Directory -
20260429T12Z_MSC_GDPS_AbsoluteVorticity_IsbL-0200_LatLon0.15_PT126H.grib2 2026-04-29 16:31 1.5M
20260429T12Z_MSC_GDPS_AbsoluteVorticity_IsbL-0250_LatLon0.15_PT126H.grib2 2026-04-29 16:31 1.3M
20260429T12Z_MSC_GDPS_AbsoluteVorticity_IsbL-0500_LatLon0.15_PT126H.grib2 2026-04-29 16:31 1.5M
20260429T12Z_MSC_GDPS_AbsoluteVorticity_IsbL-0700_LatLon0.15_PT126H.grib2 2026-04-29 16:31 1.3M
20260429T12Z_MSC_GDPS_AbsoluteVorticity_IsbL-0850_LatLon0.15_PT126H.grib2 2026-04-29 16:31 1.6M
20260429T12Z_MSC_GDPS_AirTemp-Max_AGL-2m_LatLon0.15_PT126H.grib2 2026-04-29 16:31 745K
20260429T12Z_MSC_GDPS_AirTemp-Min_AGL-2m_LatLon0.15_PT126H.grib2 2026-04-29 16:31 795K
20260429T12Z_MSC_GDPS_AirTemp_AGL-120m_LatLon0.15_PT126H.grib2 2026-04-29 16:31 907K
20260429T12Z_MSC_GDPS_AirTemp_AGL-2m_LatLon0.15_PT126H.grib2 2026-04-29 16:31 1.0M
20260429T12Z_MSC_GDPS_AirTemp_AGL-40m_LatLon0.15_PT126H.grib2 2026-04-29 16:31 813K
20260429T12Z_MSC_GDPS_AirTemp_AGL-80m_LatLon0.15_PT126H.grib2 2026-04-29 16:31 800K
20260429T12Z_MSC_GDPS_AirTemp_IsbL-0001_LatLon0.15_PT126H.grib2 2026-04-29 16:31 649K
20260429T12Z_MSC_GDPS_AirTemp_IsbL-0005_LatLon0.15_PT126H.grib2 2026-04-29 16:31 688K
20260429T12Z_MSC_GDPS_AirTemp_IsbL-0010_LatLon0.15_PT126H.grib2 2026-04-29 16:31 697K
20260429T12Z_MSC_GDPS_AirTemp_IsbL-0020_LatLon0.15_PT126H.grib2 2026-04-29 16:31 793K
20260429T12Z_MSC_GDPS_AirTemp_IsbL-0030_LatLon0.15_PT126H.grib2 2026-04-29 16:31 759K
20260429T12Z_MSC_GDPS_AirTemp_IsbL-0050_LatLon0.15_PT126H.grib2 2026-04-29 16:31 814K
20260429T12Z_MSC_GDPS_AirTemp_IsbL-0100_LatLon0.15_PT126H.grib2 2026-04-29 16:31 973K
20260429T12Z_MSC_GDPS_AirTemp_IsbL-0150_LatLon0.15_PT126H.grib2 2026-04-29 16:31 970K
20260429T12Z_MSC_GDPS_AirTemp_IsbL-0175_LatLon0.15_PT126H.grib2 2026-04-29 16:31 962K
20260429T12Z_MSC_GDPS_AirTemp_IsbL-0200_LatLon0.15_PT126H.grib2 2026-04-29 16:31 1.0M
20260429T12Z_MSC_GDPS_AirTemp_IsbL-0225_LatLon0.15_PT126H.grib2 2026-04-29 16:31 1.0M
20260429T12Z_MSC_GDPS_AirTemp_IsbL-0250_LatLon0.15_PT126H.grib2 2026-04-29 16:31 1.0M
20260429T12Z_MSC_GDPS_AirTemp_IsbL-0275_LatLon0.15_PT126H.grib2 2026-04-29 16:31 1.0M
20260429T12Z_MSC_GDPS_AirTemp_IsbL-0300_LatLon0.15_PT126H.grib2 2026-04-29 16:31 950K
20260429T12Z_MSC_GDPS_AirTemp_IsbL-0350_LatLon0.15_PT126H.grib2 2026-04-29 16:31 930K
20260429T12Z_MSC_GDPS_AirTemp_IsbL-0400_LatLon0.15_PT126H.grib2 2026-04-29 16:31 944K
20260429T12Z_MSC_GDPS_AirTemp_IsbL-0450_LatLon0.15_PT126H.grib2 2026-04-29 16:31 969K
20260429T12Z_MSC_GDPS_AirTemp_IsbL-0500_LatLon0.15_PT126H.grib2 2026-04-29 16:31 1.0M
20260429T12Z_MSC_GDPS_AirTemp_IsbL-0550_LatLon0.15_PT126H.grib2 2026-04-29 16:31 809K
20260429T12Z_MSC_GDPS_AirTemp_IsbL-0600_LatLon0.15_PT126H.grib2 2026-04-29 16:31 896K
20260429T12Z_MSC_GDPS_AirTemp_IsbL-0650_LatLon0.15_PT126H.grib2 2026-04-29 16:31 921K
20260429T12Z_MSC_GDPS_AirTemp_IsbL-0700_LatLon0.15_PT126H.grib2 2026-04-29 16:31 959K
20260429T12Z_MSC_GDPS_AirTemp_IsbL-0750_LatLon0.15_PT126H.grib2 2026-04-29 16:31 1.0M
20260429T12Z_MSC_GDPS_AirTemp_IsbL-0800_LatLon0.15_PT126H.grib2 2026-04-29 16:31 1.1M
20260429T12Z_MSC_GDPS_AirTemp_IsbL-0850_LatLon0.15_PT126H.grib2 2026-04-29 16:31 1.1M
20260429T12Z_MSC_GDPS_AirTemp_IsbL-0875_LatLon0.15_PT126H.grib2 2026-04-29 16:31 1.2M
20260429T12Z_MSC_GDPS_AirTemp_IsbL-0900_LatLon0.15_PT126H.grib2 2026-04-29 16:31 1.1M
20260429T12Z_MSC_GDPS_AirTemp_IsbL-0925_LatLon0.15_PT126H.grib2 2026-04-29 16:31 1.1M
20260429T12Z_MSC_GDPS_AirTemp_IsbL-0950_LatLon0.15_PT126H.grib2 2026-04-29 16:31 1.1M
20260429T12Z_MSC_GDPS_AirTemp_IsbL-0970_LatLon0.15_PT126H.grib2 2026-04-29 16:31 1.1M
20260429T12Z_MSC_GDPS_AirTemp_IsbL-0985_LatLon0.15_PT126H.grib2 2026-04-29 16:31 1.1M
20260429T12Z_MSC_GDPS_AirTemp_IsbL-1000_LatLon0.15_PT126H.grib2 2026-04-29 16:31 1.1M
20260429T12Z_MSC_GDPS_AirTemp_IsbL-1015_LatLon0.15_PT126H.grib2 2026-04-29 16:31 1.1M
20260429T12Z_MSC_GDPS_Albedo_Sfc_LatLon0.15_PT126H.grib2 2026-04-29 16:31 246K
20260429T12Z_MSC_GDPS_CAPE_Sfc_LatLon0.15_PT126H.grib2 2026-04-29 16:31 3.9M
20260429T12Z_MSC_GDPS_CIN_Sfc_LatLon0.15_PT126H.grib2 2026-04-29 16:31 2.8M
20260429T12Z_MSC_GDPS_CloudWater_EAtm_LatLon0.15_PT126H.grib2 2026-04-29 16:31 534K
20260429T12Z_MSC_GDPS_ConvectivePrecip-Accum_Sfc_LatLon0.15_PT126H.grib2 2026-04-29 16:31 3.6M
20260429T12Z_MSC_GDPS_DewPointDepression_AGL-2m_LatLon0.15_PT126H.grib2 2026-04-29 16:31 772K
20260429T12Z_MSC_GDPS_DewPointDepression_IsbL-0010_LatLon0.15_PT126H.grib2 2026-04-29 16:31 73K
20260429T12Z_MSC_GDPS_DewPointDepression_IsbL-0020_LatLon0.15_PT126H.grib2 2026-04-29 16:31 75K
20260429T12Z_MSC_GDPS_DewPointDepression_IsbL-0030_LatLon0.15_PT126H.grib2 2026-04-29 16:31 89K
20260429T12Z_MSC_GDPS_DewPointDepression_IsbL-0050_LatLon0.15_PT126H.grib2 2026-04-29 16:31 384K
20260429T12Z_MSC_GDPS_DewPointDepression_IsbL-0100_LatLon0.15_PT126H.grib2 2026-04-29 16:31 401K
20260429T12Z_MSC_GDPS_DewPointDepression_IsbL-0150_LatLon0.15_PT126H.grib2 2026-04-29 16:31 473K
20260429T12Z_MSC_GDPS_DewPointDepression_IsbL-0175_LatLon0.15_PT126H.grib2 2026-04-29 16:31 583K
20260429T12Z_MSC_GDPS_DewPointDepression_IsbL-0200_LatLon0.15_PT126H.grib2 2026-04-29 16:31 683K
20260429T12Z_MSC_GDPS_DewPointDepression_IsbL-0225_LatLon0.15_PT126H.grib2 2026-04-29 16:31 773K
20260429T12Z_MSC_GDPS_DewPointDepression_IsbL-0250_LatLon0.15_PT126H.grib2 2026-04-29 16:31 863K
20260429T12Z_MSC_GDPS_DewPointDepression_IsbL-0275_LatLon0.15_PT126H.grib2 2026-04-29 16:31 882K
20260429T12Z_MSC_GDPS_DewPointDepression_IsbL-0300_LatLon0.15_PT126H.grib2 2026-04-29 16:31 916K
20260429T12Z_MSC_GDPS_DewPointDepression_IsbL-0350_LatLon0.15_PT126H.grib2 2026-04-29 16:31 951K
20260429T12Z_MSC_GDPS_DewPointDepression_IsbL-0400_LatLon0.15_PT126H.grib2 2026-04-29 16:31 1.0M
20260429T12Z_MSC_GDPS_DewPointDepression_IsbL-0450_LatLon0.15_PT126H.grib2 2026-04-29 16:31 1.0M
20260429T12Z_MSC_GDPS_DewPointDepression_IsbL-0500_LatLon0.15_PT126H.grib2 2026-04-29 16:31 1.0M
20260429T12Z_MSC_GDPS_DewPointDepression_IsbL-0550_LatLon0.15_PT126H.grib2 2026-04-29 16:31 1.0M
20260429T12Z_MSC_GDPS_DewPointDepression_IsbL-0600_LatLon0.15_PT126H.grib2 2026-04-29 16:31 1.1M
20260429T12Z_MSC_GDPS_DewPointDepression_IsbL-0650_LatLon0.15_PT126H.grib2 2026-04-29 16:31 1.1M
20260429T12Z_MSC_GDPS_DewPointDepression_IsbL-0700_LatLon0.15_PT126H.grib2 2026-04-29 16:31 1.1M
20260429T12Z_MSC_GDPS_DewPointDepression_IsbL-0750_LatLon0.15_PT126H.grib2 2026-04-29 16:31 1.1M
20260429T12Z_MSC_GDPS_DewPointDepression_IsbL-0800_LatLon0.15_PT126H.grib2 2026-04-29 16:31 1.2M
20260429T12Z_MSC_GDPS_DewPointDepression_IsbL-0850_LatLon0.15_PT126H.grib2 2026-04-29 16:31 1.2M
20260429T12Z_MSC_GDPS_DewPointDepression_IsbL-0875_LatLon0.15_PT126H.grib2 2026-04-29 16:31 1.1M
20260429T12Z_MSC_GDPS_DewPointDepression_IsbL-0900_LatLon0.15_PT126H.grib2 2026-04-29 16:31 1.1M
20260429T12Z_MSC_GDPS_DewPointDepression_IsbL-0925_LatLon0.15_PT126H.grib2 2026-04-29 16:31 1.0M
20260429T12Z_MSC_GDPS_DewPointDepression_IsbL-0950_LatLon0.15_PT126H.grib2 2026-04-29 16:31 1.0M
20260429T12Z_MSC_GDPS_DewPointDepression_IsbL-0970_LatLon0.15_PT126H.grib2 2026-04-29 16:31 1.0M
20260429T12Z_MSC_GDPS_DewPointDepression_IsbL-0985_LatLon0.15_PT126H.grib2 2026-04-29 16:31 1.0M
20260429T12Z_MSC_GDPS_DewPointDepression_IsbL-1000_LatLon0.15_PT126H.grib2 2026-04-29 16:31 1.0M
20260429T12Z_MSC_GDPS_DewPointDepression_IsbL-1015_LatLon0.15_PT126H.grib2 2026-04-29 16:31 929K
20260429T12Z_MSC_GDPS_DewPoint_AGL-2m_LatLon0.15_PT126H.grib2 2026-04-29 16:31 614K
20260429T12Z_MSC_GDPS_DownwardLongwaveRadiationFlux-Accum_Sfc_LatLon0.15_PT126H.grib2 2026-04-29 16:31 814K
20260429T12Z_MSC_GDPS_DownwardShortwaveRadiationFlux-Accum_NTAtm_LatLon0.15_PT126H.grib2 2026-04-29 16:31 182K
20260429T12Z_MSC_GDPS_DownwardShortwaveRadiationFlux-Accum_Sfc_LatLon0.15_PT126H.grib2 2026-04-29 16:31 1.0M
20260429T12Z_MSC_GDPS_FreezingRain-Accum12h_Sfc_LatLon0.15_PT126H.grib2 2026-04-29 16:31 108K
20260429T12Z_MSC_GDPS_FreezingRain-Accum1h_Sfc_LatLon0.15_PT126H.grib2 2026-04-29 16:31 39K
20260429T12Z_MSC_GDPS_FreezingRain-Accum24h_Sfc_LatLon0.15_PT126H.grib2 2026-04-29 16:31 134K
20260429T12Z_MSC_GDPS_FreezingRain-Accum3h_Sfc_LatLon0.15_PT126H.grib2 2026-04-29 16:31 65K
20260429T12Z_MSC_GDPS_FreezingRain-Accum6h_Sfc_LatLon0.15_PT126H.grib2 2026-04-29 16:31 87K
20260429T12Z_MSC_GDPS_FreezingRain-Accum_Sfc_LatLon0.15_PT126H.grib2 2026-04-29 16:31 386K
20260429T12Z_MSC_GDPS_GeopotentialHeight_IsbL-0001_LatLon0.15_PT126H.grib2 2026-04-29 16:31 416K
20260429T12Z_MSC_GDPS_GeopotentialHeight_IsbL-0005_LatLon0.15_PT126H.grib2 2026-04-29 16:31 491K
20260429T12Z_MSC_GDPS_GeopotentialHeight_IsbL-0010_LatLon0.15_PT126H.grib2 2026-04-29 16:31 482K
20260429T12Z_MSC_GDPS_GeopotentialHeight_IsbL-0020_LatLon0.15_PT126H.grib2 2026-04-29 16:31 415K
20260429T12Z_MSC_GDPS_GeopotentialHeight_IsbL-0030_LatLon0.15_PT126H.grib2 2026-04-29 16:31 574K
20260429T12Z_MSC_GDPS_GeopotentialHeight_IsbL-0050_LatLon0.15_PT126H.grib2 2026-04-29 16:31 574K
20260429T12Z_MSC_GDPS_GeopotentialHeight_IsbL-0100_LatLon0.15_PT126H.grib2 2026-04-29 16:31 609K
20260429T12Z_MSC_GDPS_GeopotentialHeight_IsbL-0150_LatLon0.15_PT126H.grib2 2026-04-29 16:31 626K
20260429T12Z_MSC_GDPS_GeopotentialHeight_IsbL-0175_LatLon0.15_PT126H.grib2 2026-04-29 16:31 630K
20260429T12Z_MSC_GDPS_GeopotentialHeight_IsbL-0200_LatLon0.15_PT126H.grib2 2026-04-29 16:31 636K
20260429T12Z_MSC_GDPS_GeopotentialHeight_IsbL-0225_LatLon0.15_PT126H.grib2 2026-04-29 16:31 640K
20260429T12Z_MSC_GDPS_GeopotentialHeight_IsbL-0250_LatLon0.15_PT126H.grib2 2026-04-29 16:31 643K
20260429T12Z_MSC_GDPS_GeopotentialHeight_IsbL-0275_LatLon0.15_PT126H.grib2 2026-04-29 16:31 643K
20260429T12Z_MSC_GDPS_GeopotentialHeight_IsbL-0300_LatLon0.15_PT126H.grib2 2026-04-29 16:31 641K
20260429T12Z_MSC_GDPS_GeopotentialHeight_IsbL-0350_LatLon0.15_PT126H.grib2 2026-04-29 16:31 629K
20260429T12Z_MSC_GDPS_GeopotentialHeight_IsbL-0400_LatLon0.15_PT126H.grib2 2026-04-29 16:31 621K
20260429T12Z_MSC_GDPS_GeopotentialHeight_IsbL-0450_LatLon0.15_PT126H.grib2 2026-04-29 16:31 611K
20260429T12Z_MSC_GDPS_GeopotentialHeight_IsbL-0500_LatLon0.15_PT126H.grib2 2026-04-29 16:31 533K
20260429T12Z_MSC_GDPS_GeopotentialHeight_IsbL-0550_LatLon0.15_PT126H.grib2 2026-04-29 16:31 526K
20260429T12Z_MSC_GDPS_GeopotentialHeight_IsbL-0600_LatLon0.15_PT126H.grib2 2026-04-29 16:31 693K
20260429T12Z_MSC_GDPS_GeopotentialHeight_IsbL-0650_LatLon0.15_PT126H.grib2 2026-04-29 16:31 690K
20260429T12Z_MSC_GDPS_GeopotentialHeight_IsbL-0700_LatLon0.15_PT126H.grib2 2026-04-29 16:31 691K
20260429T12Z_MSC_GDPS_GeopotentialHeight_IsbL-0750_LatLon0.15_PT126H.grib2 2026-04-29 16:31 695K
20260429T12Z_MSC_GDPS_GeopotentialHeight_IsbL-0800_LatLon0.15_PT126H.grib2 2026-04-29 16:31 705K
20260429T12Z_MSC_GDPS_GeopotentialHeight_IsbL-0850_LatLon0.15_PT126H.grib2 2026-04-29 16:31 713K
20260429T12Z_MSC_GDPS_GeopotentialHeight_IsbL-0875_LatLon0.15_PT126H.grib2 2026-04-29 16:31 720K
20260429T12Z_MSC_GDPS_GeopotentialHeight_IsbL-0900_LatLon0.15_PT126H.grib2 2026-04-29 16:31 724K
20260429T12Z_MSC_GDPS_GeopotentialHeight_IsbL-0925_LatLon0.15_PT126H.grib2 2026-04-29 16:31 729K
20260429T12Z_MSC_GDPS_GeopotentialHeight_IsbL-0950_LatLon0.15_PT126H.grib2 2026-04-29 16:31 740K
20260429T12Z_MSC_GDPS_GeopotentialHeight_IsbL-0970_LatLon0.15_PT126H.grib2 2026-04-29 16:31 750K
20260429T12Z_MSC_GDPS_GeopotentialHeight_IsbL-0985_LatLon0.15_PT126H.grib2 2026-04-29 16:31 765K
20260429T12Z_MSC_GDPS_GeopotentialHeight_IsbL-1000_LatLon0.15_PT126H.grib2 2026-04-29 16:31 785K
20260429T12Z_MSC_GDPS_GeopotentialHeight_IsbL-1015_LatLon0.15_PT126H.grib2 2026-04-29 16:31 809K
20260429T12Z_MSC_GDPS_Humidex_Sfc_LatLon0.15_PT126H.grib2 2026-04-29 16:31 5.3M
20260429T12Z_MSC_GDPS_IcePellets-Accum12h_Sfc_LatLon0.15_PT126H.grib2 2026-04-29 16:31 25K
20260429T12Z_MSC_GDPS_IcePellets-Accum1h_Sfc_LatLon0.15_PT126H.grib2 2026-04-29 16:31 12K
20260429T12Z_MSC_GDPS_IcePellets-Accum24h_Sfc_LatLon0.15_PT126H.grib2 2026-04-29 16:31 28K
20260429T12Z_MSC_GDPS_IcePellets-Accum3h_Sfc_LatLon0.15_PT126H.grib2 2026-04-29 16:31 13K
20260429T12Z_MSC_GDPS_IcePellets-Accum6h_Sfc_LatLon0.15_PT126H.grib2 2026-04-29 16:31 19K
20260429T12Z_MSC_GDPS_IcePellets-Accum_Sfc_LatLon0.15_PT126H.grib2 2026-04-29 16:31 86K
20260429T12Z_MSC_GDPS_KIndex_Sfc_LatLon0.15_PT126H.grib2 2026-04-29 16:31 6.5M
20260429T12Z_MSC_GDPS_LatentHeatNetFlux_Sfc_LatLon0.15_PT126H.grib2 2026-04-29 16:31 696K
20260429T12Z_MSC_GDPS_LiftedIndex-MU-VT_IsbL-0500_LatLon0.15_PT126H.grib2 2026-04-29 16:31 5.4M
20260429T12Z_MSC_GDPS_NetLongwaveRadiationFlux-Accum_Sfc_LatLon0.15_PT126H.grib2 2026-04-29 16:31 1.0M
20260429T12Z_MSC_GDPS_NetShortwaveRadiationFlux-Accum_Sfc_LatLon0.15_PT126H.grib2 2026-04-29 16:31 1.0M
20260429T12Z_MSC_GDPS_O3MixingRatio_Sfc_LatLon0.15_PT126H.grib2 2026-04-29 16:51 1.9M
20260429T12Z_MSC_GDPS_O3_EAtm_LatLon0.15_PT126H.grib2 2026-04-29 16:51 2.4M
20260429T12Z_MSC_GDPS_PlanetaryBoundaryLayerHeight_Sfc_LatLon0.15_PT126H.grib2 2026-04-29 16:31 2.4M
20260429T12Z_MSC_GDPS_Precip-Accum12h_Sfc_LatLon0.15_PT126H.grib2 2026-04-29 16:31 4.0M
20260429T12Z_MSC_GDPS_Precip-Accum1h_Sfc_LatLon0.15_PT126H.grib2 2026-04-29 16:31 3.2M
20260429T12Z_MSC_GDPS_Precip-Accum24h_Sfc_LatLon0.15_PT126H.grib2 2026-04-29 16:31 4.5M
20260429T12Z_MSC_GDPS_Precip-Accum3h_Sfc_LatLon0.15_PT126H.grib2 2026-04-29 16:31 3.5M
20260429T12Z_MSC_GDPS_Precip-Accum6h_Sfc_LatLon0.15_PT126H.grib2 2026-04-29 16:31 3.5M
20260429T12Z_MSC_GDPS_Precip-Accum_Sfc_LatLon0.15_PT126H.grib2 2026-04-29 16:31 5.2M
20260429T12Z_MSC_GDPS_PrecipRate_Sfc_LatLon0.15_PT126H.grib2 2026-04-29 16:31 3.0M
20260429T12Z_MSC_GDPS_PrecipType-Instant_Sfc_LatLon0.15_PT126H.grib2 2026-04-29 16:31 1.6M
20260429T12Z_MSC_GDPS_Pressure_MSL_LatLon0.15_PT126H.grib2 2026-04-29 16:31 822K
20260429T12Z_MSC_GDPS_Pressure_PVU-1.5_LatLon0.15_PT126H.grib2 2026-04-29 16:31 5.8M
20260429T12Z_MSC_GDPS_Pressure_PVU-1_LatLon0.15_PT126H.grib2 2026-04-29 16:31 6.0M
20260429T12Z_MSC_GDPS_Pressure_PVU-2_LatLon0.15_PT126H.grib2 2026-04-29 16:31 5.6M
20260429T12Z_MSC_GDPS_Pressure_Sfc_LatLon0.15_PT126H.grib2 2026-04-29 16:31 1.1M
20260429T12Z_MSC_GDPS_RadiativeTemp_Sfc_LatLon0.15_PT126H.grib2 2026-04-29 16:31 495K
20260429T12Z_MSC_GDPS_Rain-Accum12h_Sfc_LatLon0.15_PT126H.grib2 2026-04-29 16:31 2.7M
20260429T12Z_MSC_GDPS_Rain-Accum1h_Sfc_LatLon0.15_PT126H.grib2 2026-04-29 16:31 1.7M
20260429T12Z_MSC_GDPS_Rain-Accum24h_Sfc_LatLon0.15_PT126H.grib2 2026-04-29 16:31 3.1M
20260429T12Z_MSC_GDPS_Rain-Accum3h_Sfc_LatLon0.15_PT126H.grib2 2026-04-29 16:31 1.9M
20260429T12Z_MSC_GDPS_Rain-Accum6h_Sfc_LatLon0.15_PT126H.grib2 2026-04-29 16:31 2.3M
20260429T12Z_MSC_GDPS_Rain-Accum_Sfc_LatLon0.15_PT126H.grib2 2026-04-29 16:31 4.0M
20260429T12Z_MSC_GDPS_RelativeHumidity_AGL-2m_LatLon0.15_PT126H.grib2 2026-04-29 16:31 1.0M
20260429T12Z_MSC_GDPS_RelativeHumidity_IsbL-0010_LatLon0.15_PT126H.grib2 2026-04-29 16:31 199K
20260429T12Z_MSC_GDPS_RelativeHumidity_IsbL-0020_LatLon0.15_PT126H.grib2 2026-04-29 16:31 166K
20260429T12Z_MSC_GDPS_RelativeHumidity_IsbL-0030_LatLon0.15_PT126H.grib2 2026-04-29 16:31 268K
20260429T12Z_MSC_GDPS_RelativeHumidity_IsbL-0050_LatLon0.15_PT126H.grib2 2026-04-29 16:31 340K
20260429T12Z_MSC_GDPS_RelativeHumidity_IsbL-0100_LatLon0.15_PT126H.grib2 2026-04-29 16:31 501K
20260429T12Z_MSC_GDPS_RelativeHumidity_IsbL-0150_LatLon0.15_PT126H.grib2 2026-04-29 16:31 663K
20260429T12Z_MSC_GDPS_RelativeHumidity_IsbL-0175_LatLon0.15_PT126H.grib2 2026-04-29 16:31 795K
20260429T12Z_MSC_GDPS_RelativeHumidity_IsbL-0200_LatLon0.15_PT126H.grib2 2026-04-29 16:31 713K
20260429T12Z_MSC_GDPS_RelativeHumidity_IsbL-0225_LatLon0.15_PT126H.grib2 2026-04-29 16:31 790K
20260429T12Z_MSC_GDPS_RelativeHumidity_IsbL-0250_LatLon0.15_PT126H.grib2 2026-04-29 16:31 865K
20260429T12Z_MSC_GDPS_RelativeHumidity_IsbL-0275_LatLon0.15_PT126H.grib2 2026-04-29 16:31 889K
20260429T12Z_MSC_GDPS_RelativeHumidity_IsbL-0300_LatLon0.15_PT126H.grib2 2026-04-29 16:31 926K
20260429T12Z_MSC_GDPS_RelativeHumidity_IsbL-0350_LatLon0.15_PT126H.grib2 2026-04-29 16:31 950K
20260429T12Z_MSC_GDPS_RelativeHumidity_IsbL-0400_LatLon0.15_PT126H.grib2 2026-04-29 16:31 1.0M
20260429T12Z_MSC_GDPS_RelativeHumidity_IsbL-0450_LatLon0.15_PT126H.grib2 2026-04-29 16:31 1.0M
20260429T12Z_MSC_GDPS_RelativeHumidity_IsbL-0500_LatLon0.15_PT126H.grib2 2026-04-29 16:31 1.0M
20260429T12Z_MSC_GDPS_RelativeHumidity_IsbL-0550_LatLon0.15_PT126H.grib2 2026-04-29 16:31 1.0M
20260429T12Z_MSC_GDPS_RelativeHumidity_IsbL-0600_LatLon0.15_PT126H.grib2 2026-04-29 16:31 1.0M
20260429T12Z_MSC_GDPS_RelativeHumidity_IsbL-0650_LatLon0.15_PT126H.grib2 2026-04-29 16:31 1.1M
20260429T12Z_MSC_GDPS_RelativeHumidity_IsbL-0700_LatLon0.15_PT126H.grib2 2026-04-29 16:31 1.1M
20260429T12Z_MSC_GDPS_RelativeHumidity_IsbL-0750_LatLon0.15_PT126H.grib2 2026-04-29 16:31 1.2M
20260429T12Z_MSC_GDPS_RelativeHumidity_IsbL-0800_LatLon0.15_PT126H.grib2 2026-04-29 16:31 1.2M
20260429T12Z_MSC_GDPS_RelativeHumidity_IsbL-0850_LatLon0.15_PT126H.grib2 2026-04-29 16:31 1.3M
20260429T12Z_MSC_GDPS_RelativeHumidity_IsbL-0875_LatLon0.15_PT126H.grib2 2026-04-29 16:31 1.3M
20260429T12Z_MSC_GDPS_RelativeHumidity_IsbL-0900_LatLon0.15_PT126H.grib2 2026-04-29 16:31 1.2M
20260429T12Z_MSC_GDPS_RelativeHumidity_IsbL-0925_LatLon0.15_PT126H.grib2 2026-04-29 16:31 1.2M
20260429T12Z_MSC_GDPS_RelativeHumidity_IsbL-0950_LatLon0.15_PT126H.grib2 2026-04-29 16:31 1.2M
20260429T12Z_MSC_GDPS_RelativeHumidity_IsbL-0970_LatLon0.15_PT126H.grib2 2026-04-29 16:31 1.2M
20260429T12Z_MSC_GDPS_RelativeHumidity_IsbL-0985_LatLon0.15_PT126H.grib2 2026-04-29 16:31 1.2M
20260429T12Z_MSC_GDPS_RelativeHumidity_IsbL-1000_LatLon0.15_PT126H.grib2 2026-04-29 16:31 1.1M
20260429T12Z_MSC_GDPS_RelativeHumidity_IsbL-1015_LatLon0.15_PT126H.grib2 2026-04-29 16:31 1.1M
20260429T12Z_MSC_GDPS_RelativeVorticity_IsbL-0200_LatLon0.15_PT126H.grib2 2026-04-29 16:31 1.5M
20260429T12Z_MSC_GDPS_RelativeVorticity_IsbL-0250_LatLon0.15_PT126H.grib2 2026-04-29 16:31 1.6M
20260429T12Z_MSC_GDPS_RelativeVorticity_IsbL-0500_LatLon0.15_PT126H.grib2 2026-04-29 16:31 1.5M
20260429T12Z_MSC_GDPS_RelativeVorticity_IsbL-0700_LatLon0.15_PT126H.grib2 2026-04-29 16:31 1.3M
20260429T12Z_MSC_GDPS_RelativeVorticity_IsbL-0850_LatLon0.15_PT126H.grib2 2026-04-29 16:31 1.6M
20260429T12Z_MSC_GDPS_Runoff-Accum_Sfc_LatLon0.15_PT126H.grib2 2026-04-29 16:31 145K
20260429T12Z_MSC_GDPS_SensibleHeatNetFlux_Sfc_LatLon0.15_PT126H.grib2 2026-04-29 16:31 639K
20260429T12Z_MSC_GDPS_ShowalterIndex_IsbL-0500_LatLon0.15_PT126H.grib2 2026-04-29 16:31 6.2M
20260429T12Z_MSC_GDPS_Snow-Accum12h_Sfc_LatLon0.15_PT126H.grib2 2026-04-29 16:31 1.4M
20260429T12Z_MSC_GDPS_Snow-Accum1h_Sfc_LatLon0.15_PT126H.grib2 2026-04-29 16:31 1.1M
20260429T12Z_MSC_GDPS_Snow-Accum24h_Sfc_LatLon0.15_PT126H.grib2 2026-04-29 16:31 1.4M
20260429T12Z_MSC_GDPS_Snow-Accum3h_Sfc_LatLon0.15_PT126H.grib2 2026-04-29 16:31 1.0M
20260429T12Z_MSC_GDPS_Snow-Accum6h_Sfc_LatLon0.15_PT126H.grib2 2026-04-29 16:31 1.2M
20260429T12Z_MSC_GDPS_Snow-Accum_Sfc_LatLon0.15_PT126H.grib2 2026-04-29 16:31 2.1M
20260429T12Z_MSC_GDPS_SnowDensity_Sfc_LatLon0.15_PT126H.grib2 2026-04-29 16:31 264K
20260429T12Z_MSC_GDPS_SnowDepth_Sfc_LatLon0.15_PT126H.grib2 2026-04-29 16:31 1.7M
20260429T12Z_MSC_GDPS_SoilTemp_DBS-0to10cm_LatLon0.15_PT126H.grib2 2026-04-29 16:31 514K
20260429T12Z_MSC_GDPS_SoilTemp_Sfc_LatLon0.15_PT126H.grib2 2026-04-29 16:31 581K
20260429T12Z_MSC_GDPS_SoilVolumetricIceContent_Sfc_LatLon0.15_PT126H.grib2 2026-04-29 16:31 194K
20260429T12Z_MSC_GDPS_SoilVolumetricWaterContent_DBS-0to10cm_LatLon0.15_PT126H.grib2 2026-04-29 16:31 589K
20260429T12Z_MSC_GDPS_SoilVolumetricWaterContent_DBS-0to1cm_LatLon0.15_PT126H.grib2 2026-04-29 16:31 648K
20260429T12Z_MSC_GDPS_SpecificHumidity_AGL-120m_LatLon0.15_PT126H.grib2 2026-04-29 16:31 1.1M
20260429T12Z_MSC_GDPS_SpecificHumidity_AGL-2m_LatLon0.15_PT126H.grib2 2026-04-29 16:31 1.2M
20260429T12Z_MSC_GDPS_SpecificHumidity_AGL-40m_LatLon0.15_PT126H.grib2 2026-04-29 16:31 1.1M
20260429T12Z_MSC_GDPS_SpecificHumidity_AGL-80m_LatLon0.15_PT126H.grib2 2026-04-29 16:31 1.1M
20260429T12Z_MSC_GDPS_SpecificHumidity_IsbL-0001_LatLon0.15_PT126H.grib2 2026-04-29 16:31 1.2M
20260429T12Z_MSC_GDPS_SpecificHumidity_IsbL-0005_LatLon0.15_PT126H.grib2 2026-04-29 16:31 1.1M
20260429T12Z_MSC_GDPS_SpecificHumidity_IsbL-0010_LatLon0.15_PT126H.grib2 2026-04-29 16:31 1.3M
20260429T12Z_MSC_GDPS_SpecificHumidity_IsbL-0020_LatLon0.15_PT126H.grib2 2026-04-29 16:31 1.3M
20260429T12Z_MSC_GDPS_SpecificHumidity_IsbL-0030_LatLon0.15_PT126H.grib2 2026-04-29 16:31 1.3M
20260429T12Z_MSC_GDPS_SpecificHumidity_IsbL-0050_LatLon0.15_PT126H.grib2 2026-04-29 16:31 1.6M
20260429T12Z_MSC_GDPS_SpecificHumidity_IsbL-0100_LatLon0.15_PT126H.grib2 2026-04-29 16:31 1.3M
20260429T12Z_MSC_GDPS_SpecificHumidity_IsbL-0150_LatLon0.15_PT126H.grib2 2026-04-29 16:31 1.3M
20260429T12Z_MSC_GDPS_SpecificHumidity_IsbL-0175_LatLon0.15_PT126H.grib2 2026-04-29 16:31 1.3M
20260429T12Z_MSC_GDPS_SpecificHumidity_IsbL-0200_LatLon0.15_PT126H.grib2 2026-04-29 16:31 1.3M
20260429T12Z_MSC_GDPS_SpecificHumidity_IsbL-0225_LatLon0.15_PT126H.grib2 2026-04-29 16:31 1.3M
20260429T12Z_MSC_GDPS_SpecificHumidity_IsbL-0250_LatLon0.15_PT126H.grib2 2026-04-29 16:31 1.4M
20260429T12Z_MSC_GDPS_SpecificHumidity_IsbL-0275_LatLon0.15_PT126H.grib2 2026-04-29 16:31 1.3M
20260429T12Z_MSC_GDPS_SpecificHumidity_IsbL-0300_LatLon0.15_PT126H.grib2 2026-04-29 16:31 1.2M
20260429T12Z_MSC_GDPS_SpecificHumidity_IsbL-0350_LatLon0.15_PT126H.grib2 2026-04-29 16:31 1.2M
20260429T12Z_MSC_GDPS_SpecificHumidity_IsbL-0400_LatLon0.15_PT126H.grib2 2026-04-29 16:31 1.5M
20260429T12Z_MSC_GDPS_SpecificHumidity_IsbL-0450_LatLon0.15_PT126H.grib2 2026-04-29 16:31 1.3M
20260429T12Z_MSC_GDPS_SpecificHumidity_IsbL-0500_LatLon0.15_PT126H.grib2 2026-04-29 16:31 1.4M
20260429T12Z_MSC_GDPS_SpecificHumidity_IsbL-0550_LatLon0.15_PT126H.grib2 2026-04-29 16:31 1.6M
20260429T12Z_MSC_GDPS_SpecificHumidity_IsbL-0600_LatLon0.15_PT126H.grib2 2026-04-29 16:31 1.7M
20260429T12Z_MSC_GDPS_SpecificHumidity_IsbL-0650_LatLon0.15_PT126H.grib2 2026-04-29 16:31 1.5M
20260429T12Z_MSC_GDPS_SpecificHumidity_IsbL-0700_LatLon0.15_PT126H.grib2 2026-04-29 16:31 1.6M
20260429T12Z_MSC_GDPS_SpecificHumidity_IsbL-0750_LatLon0.15_PT126H.grib2 2026-04-29 16:31 1.7M
20260429T12Z_MSC_GDPS_SpecificHumidity_IsbL-0800_LatLon0.15_PT126H.grib2 2026-04-29 16:31 1.8M
20260429T12Z_MSC_GDPS_SpecificHumidity_IsbL-0850_LatLon0.15_PT126H.grib2 2026-04-29 16:31 1.9M
20260429T12Z_MSC_GDPS_SpecificHumidity_IsbL-0875_LatLon0.15_PT126H.grib2 2026-04-29 16:31 1.9M
20260429T12Z_MSC_GDPS_SpecificHumidity_IsbL-0900_LatLon0.15_PT126H.grib2 2026-04-29 16:31 1.9M
20260429T12Z_MSC_GDPS_SpecificHumidity_IsbL-0925_LatLon0.15_PT126H.grib2 2026-04-29 16:31 1.9M
20260429T12Z_MSC_GDPS_SpecificHumidity_IsbL-0950_LatLon0.15_PT126H.grib2 2026-04-29 16:31 1.6M
20260429T12Z_MSC_GDPS_SpecificHumidity_IsbL-0970_LatLon0.15_PT126H.grib2 2026-04-29 16:31 1.5M
20260429T12Z_MSC_GDPS_SpecificHumidity_IsbL-0985_LatLon0.15_PT126H.grib2 2026-04-29 16:31 1.5M
20260429T12Z_MSC_GDPS_SpecificHumidity_IsbL-1000_LatLon0.15_PT126H.grib2 2026-04-29 16:31 1.5M
20260429T12Z_MSC_GDPS_SpecificHumidity_IsbL-1015_LatLon0.15_PT126H.grib2 2026-04-29 16:31 1.5M
20260429T12Z_MSC_GDPS_SpecificHumidity_Sfc_LatLon0.15_PT126H.grib2 2026-04-29 16:31 647K
20260429T12Z_MSC_GDPS_Thickness_IsbL-0850to0700_LatLon0.15_PT126H.grib2 2026-04-29 16:31 472K
20260429T12Z_MSC_GDPS_Thickness_IsbL-1000to0500_LatLon0.15_PT126H.grib2 2026-04-29 16:31 375K
20260429T12Z_MSC_GDPS_Thickness_IsbL-1000to0850_LatLon0.15_PT126H.grib2 2026-04-29 16:31 492K
20260429T12Z_MSC_GDPS_TotalCloudCover_Sfc_LatLon0.15_PT126H.grib2 2026-04-29 16:31 823K
20260429T12Z_MSC_GDPS_TotalTotalsIndex_Sfc_LatLon0.15_PT126H.grib2 2026-04-29 16:31 6.2M
20260429T12Z_MSC_GDPS_UVIndex-ClearSky-Max24h_Sfc_LatLon0.15_PT126H.grib2 2026-04-29 16:51 2.2M
20260429T12Z_MSC_GDPS_UVIndex-ClearSky_Sfc_LatLon0.15_PT126H.grib2 2026-04-29 16:51 1.0M
20260429T12Z_MSC_GDPS_UVIndex-Max24h_Sfc_LatLon0.15_PT126H.grib2 2026-04-29 16:51 3.2M
20260429T12Z_MSC_GDPS_UVIndex_Sfc_LatLon0.15_PT126H.grib2 2026-04-29 16:51 1.5M
20260429T12Z_MSC_GDPS_UpwardLongwaveRadiationFlux_NTAtm_LatLon0.15_PT126H.grib2 2026-04-29 16:31 837K
20260429T12Z_MSC_GDPS_VerticalVelocity_IsbL-0200_LatLon0.15_PT126H.grib2 2026-04-29 16:31 1.2M
20260429T12Z_MSC_GDPS_VerticalVelocity_IsbL-0250_LatLon0.15_PT126H.grib2 2026-04-29 16:31 1.1M
20260429T12Z_MSC_GDPS_VerticalVelocity_IsbL-0500_LatLon0.15_PT126H.grib2 2026-04-29 16:31 1.0M
20260429T12Z_MSC_GDPS_VerticalVelocity_IsbL-0600_LatLon0.15_PT126H.grib2 2026-04-29 16:31 1.1M
20260429T12Z_MSC_GDPS_VerticalVelocity_IsbL-0700_LatLon0.15_PT126H.grib2 2026-04-29 16:31 1.2M
20260429T12Z_MSC_GDPS_VerticalVelocity_IsbL-0850_LatLon0.15_PT126H.grib2 2026-04-29 16:31 1.3M
20260429T12Z_MSC_GDPS_WindChill_Sfc_LatLon0.15_PT126H.grib2 2026-04-29 16:31 5.3M
20260429T12Z_MSC_GDPS_WindDir_AGL-10m_LatLon0.15_PT126H.grib2 2026-04-29 16:31 1.3M
20260429T12Z_MSC_GDPS_WindDir_AGL-120m_LatLon0.15_PT126H.grib2 2026-04-29 16:31 1.3M
20260429T12Z_MSC_GDPS_WindDir_AGL-40m_LatLon0.15_PT126H.grib2 2026-04-29 16:31 1.4M
20260429T12Z_MSC_GDPS_WindDir_AGL-80m_LatLon0.15_PT126H.grib2 2026-04-29 16:31 1.4M
20260429T12Z_MSC_GDPS_WindDir_IsbL-0001_LatLon0.15_PT126H.grib2 2026-04-29 16:31 679K
20260429T12Z_MSC_GDPS_WindDir_IsbL-0005_LatLon0.15_PT126H.grib2 2026-04-29 16:31 831K
20260429T12Z_MSC_GDPS_WindDir_IsbL-0010_LatLon0.15_PT126H.grib2 2026-04-29 16:31 831K
20260429T12Z_MSC_GDPS_WindDir_IsbL-0020_LatLon0.15_PT126H.grib2 2026-04-29 16:31 955K
20260429T12Z_MSC_GDPS_WindDir_IsbL-0030_LatLon0.15_PT126H.grib2 2026-04-29 16:31 947K
20260429T12Z_MSC_GDPS_WindDir_IsbL-0050_LatLon0.15_PT126H.grib2 2026-04-29 16:31 949K
20260429T12Z_MSC_GDPS_WindDir_IsbL-0100_LatLon0.15_PT126H.grib2 2026-04-29 16:31 1.0M
20260429T12Z_MSC_GDPS_WindDir_IsbL-0150_LatLon0.15_PT126H.grib2 2026-04-29 16:31 1.0M
20260429T12Z_MSC_GDPS_WindDir_IsbL-0175_LatLon0.15_PT126H.grib2 2026-04-29 16:31 1.0M
20260429T12Z_MSC_GDPS_WindDir_IsbL-0200_LatLon0.15_PT126H.grib2 2026-04-29 16:31 1.1M
20260429T12Z_MSC_GDPS_WindDir_IsbL-0225_LatLon0.15_PT126H.grib2 2026-04-29 16:31 1.1M
20260429T12Z_MSC_GDPS_WindDir_IsbL-0250_LatLon0.15_PT126H.grib2 2026-04-29 16:31 1.1M
20260429T12Z_MSC_GDPS_WindDir_IsbL-0275_LatLon0.15_PT126H.grib2 2026-04-29 16:31 1.2M
20260429T12Z_MSC_GDPS_WindDir_IsbL-0300_LatLon0.15_PT126H.grib2 2026-04-29 16:31 1.2M
20260429T12Z_MSC_GDPS_WindDir_IsbL-0350_LatLon0.15_PT126H.grib2 2026-04-29 16:31 1.2M
20260429T12Z_MSC_GDPS_WindDir_IsbL-0400_LatLon0.15_PT126H.grib2 2026-04-29 16:31 1.3M
20260429T12Z_MSC_GDPS_WindDir_IsbL-0450_LatLon0.15_PT126H.grib2 2026-04-29 16:31 1.3M
20260429T12Z_MSC_GDPS_WindDir_IsbL-0500_LatLon0.15_PT126H.grib2 2026-04-29 16:31 1.3M
20260429T12Z_MSC_GDPS_WindDir_IsbL-0550_LatLon0.15_PT126H.grib2 2026-04-29 16:31 1.4M
20260429T12Z_MSC_GDPS_WindDir_IsbL-0600_LatLon0.15_PT126H.grib2 2026-04-29 16:31 1.4M
20260429T12Z_MSC_GDPS_WindDir_IsbL-0650_LatLon0.15_PT126H.grib2 2026-04-29 16:31 1.5M
20260429T12Z_MSC_GDPS_WindDir_IsbL-0700_LatLon0.15_PT126H.grib2 2026-04-29 16:31 1.6M
20260429T12Z_MSC_GDPS_WindDir_IsbL-0750_LatLon0.15_PT126H.grib2 2026-04-29 16:31 1.7M
20260429T12Z_MSC_GDPS_WindDir_IsbL-0800_LatLon0.15_PT126H.grib2 2026-04-29 16:31 1.8M
20260429T12Z_MSC_GDPS_WindDir_IsbL-0850_LatLon0.15_PT126H.grib2 2026-04-29 16:31 1.9M
20260429T12Z_MSC_GDPS_WindDir_IsbL-0875_LatLon0.15_PT126H.grib2 2026-04-29 16:31 1.9M
20260429T12Z_MSC_GDPS_WindDir_IsbL-0900_LatLon0.15_PT126H.grib2 2026-04-29 16:31 2.0M
20260429T12Z_MSC_GDPS_WindDir_IsbL-0925_LatLon0.15_PT126H.grib2 2026-04-29 16:31 2.0M
20260429T12Z_MSC_GDPS_WindDir_IsbL-0950_LatLon0.15_PT126H.grib2 2026-04-29 16:31 2.0M
20260429T12Z_MSC_GDPS_WindDir_IsbL-0970_LatLon0.15_PT126H.grib2 2026-04-29 16:31 2.0M
20260429T12Z_MSC_GDPS_WindDir_IsbL-0985_LatLon0.15_PT126H.grib2 2026-04-29 16:31 2.0M
20260429T12Z_MSC_GDPS_WindDir_IsbL-1000_LatLon0.15_PT126H.grib2 2026-04-29 16:31 2.1M
20260429T12Z_MSC_GDPS_WindDir_IsbL-1015_LatLon0.15_PT126H.grib2 2026-04-29 16:31 2.0M
20260429T12Z_MSC_GDPS_WindGust-Max_AGL-10m_LatLon0.15_PT126H.grib2 2026-04-29 16:31 2.3M
20260429T12Z_MSC_GDPS_WindGust-Min_AGL-10m_LatLon0.15_PT126H.grib2 2026-04-29 16:31 2.2M
20260429T12Z_MSC_GDPS_WindGust_AGL-10m_LatLon0.15_PT126H.grib2 2026-04-29 16:31 2.2M
20260429T12Z_MSC_GDPS_WindSpeed_AGL-10m_LatLon0.15_PT126H.grib2 2026-04-29 16:31 1.1M
20260429T12Z_MSC_GDPS_WindSpeed_AGL-120m_LatLon0.15_PT126H.grib2 2026-04-29 16:31 1.2M
20260429T12Z_MSC_GDPS_WindSpeed_AGL-40m_LatLon0.15_PT126H.grib2 2026-04-29 16:31 1.2M
20260429T12Z_MSC_GDPS_WindSpeed_AGL-80m_LatLon0.15_PT126H.grib2 2026-04-29 16:31 1.2M
20260429T12Z_MSC_GDPS_WindSpeed_IsbL-0001_LatLon0.15_PT126H.grib2 2026-04-29 16:31 648K
20260429T12Z_MSC_GDPS_WindSpeed_IsbL-0005_LatLon0.15_PT126H.grib2 2026-04-29 16:31 611K
20260429T12Z_MSC_GDPS_WindSpeed_IsbL-0010_LatLon0.15_PT126H.grib2 2026-04-29 16:31 626K
20260429T12Z_MSC_GDPS_WindSpeed_IsbL-0020_LatLon0.15_PT126H.grib2 2026-04-29 16:31 667K
20260429T12Z_MSC_GDPS_WindSpeed_IsbL-0030_LatLon0.15_PT126H.grib2 2026-04-29 16:31 865K
20260429T12Z_MSC_GDPS_WindSpeed_IsbL-0050_LatLon0.15_PT126H.grib2 2026-04-29 16:31 907K
20260429T12Z_MSC_GDPS_WindSpeed_IsbL-0100_LatLon0.15_PT126H.grib2 2026-04-29 16:31 1.1M
20260429T12Z_MSC_GDPS_WindSpeed_IsbL-0150_LatLon0.15_PT126H.grib2 2026-04-29 16:31 947K
20260429T12Z_MSC_GDPS_WindSpeed_IsbL-0175_LatLon0.15_PT126H.grib2 2026-04-29 16:31 1.0M
20260429T12Z_MSC_GDPS_WindSpeed_IsbL-0200_LatLon0.15_PT126H.grib2 2026-04-29 16:31 1.1M
20260429T12Z_MSC_GDPS_WindSpeed_IsbL-0225_LatLon0.15_PT126H.grib2 2026-04-29 16:31 1.1M
20260429T12Z_MSC_GDPS_WindSpeed_IsbL-0250_LatLon0.15_PT126H.grib2 2026-04-29 16:31 1.1M
20260429T12Z_MSC_GDPS_WindSpeed_IsbL-0275_LatLon0.15_PT126H.grib2 2026-04-29 16:31 1.1M
20260429T12Z_MSC_GDPS_WindSpeed_IsbL-0300_LatLon0.15_PT126H.grib2 2026-04-29 16:31 1.1M
20260429T12Z_MSC_GDPS_WindSpeed_IsbL-0350_LatLon0.15_PT126H.grib2 2026-04-29 16:31 1.1M
20260429T12Z_MSC_GDPS_WindSpeed_IsbL-0400_LatLon0.15_PT126H.grib2 2026-04-29 16:31 1.1M
20260429T12Z_MSC_GDPS_WindSpeed_IsbL-0450_LatLon0.15_PT126H.grib2 2026-04-29 16:31 1.1M
20260429T12Z_MSC_GDPS_WindSpeed_IsbL-0500_LatLon0.15_PT126H.grib2 2026-04-29 16:31 1.1M
20260429T12Z_MSC_GDPS_WindSpeed_IsbL-0550_LatLon0.15_PT126H.grib2 2026-04-29 16:31 1.1M
20260429T12Z_MSC_GDPS_WindSpeed_IsbL-0600_LatLon0.15_PT126H.grib2 2026-04-29 16:31 1.1M
20260429T12Z_MSC_GDPS_WindSpeed_IsbL-0650_LatLon0.15_PT126H.grib2 2026-04-29 16:31 1.5M
20260429T12Z_MSC_GDPS_WindSpeed_IsbL-0700_LatLon0.15_PT126H.grib2 2026-04-29 16:31 1.5M
20260429T12Z_MSC_GDPS_WindSpeed_IsbL-0750_LatLon0.15_PT126H.grib2 2026-04-29 16:31 1.6M
20260429T12Z_MSC_GDPS_WindSpeed_IsbL-0800_LatLon0.15_PT126H.grib2 2026-04-29 16:31 1.8M
20260429T12Z_MSC_GDPS_WindSpeed_IsbL-0850_LatLon0.15_PT126H.grib2 2026-04-29 16:31 1.8M
20260429T12Z_MSC_GDPS_WindSpeed_IsbL-0875_LatLon0.15_PT126H.grib2 2026-04-29 16:31 1.8M
20260429T12Z_MSC_GDPS_WindSpeed_IsbL-0900_LatLon0.15_PT126H.grib2 2026-04-29 16:31 1.9M
20260429T12Z_MSC_GDPS_WindSpeed_IsbL-0925_LatLon0.15_PT126H.grib2 2026-04-29 16:31 1.9M
20260429T12Z_MSC_GDPS_WindSpeed_IsbL-0950_LatLon0.15_PT126H.grib2 2026-04-29 16:31 1.9M
20260429T12Z_MSC_GDPS_WindSpeed_IsbL-0970_LatLon0.15_PT126H.grib2 2026-04-29 16:31 1.9M
20260429T12Z_MSC_GDPS_WindSpeed_IsbL-0985_LatLon0.15_PT126H.grib2 2026-04-29 16:31 1.9M
20260429T12Z_MSC_GDPS_WindSpeed_IsbL-1000_LatLon0.15_PT126H.grib2 2026-04-29 16:31 1.8M
20260429T12Z_MSC_GDPS_WindSpeed_IsbL-1015_LatLon0.15_PT126H.grib2 2026-04-29 16:31 1.8M
20260429T12Z_MSC_GDPS_WindU_AGL-10m_LatLon0.15_PT126H.grib2 2026-04-29 16:31 1.3M
20260429T12Z_MSC_GDPS_WindU_AGL-120m_LatLon0.15_PT126H.grib2 2026-04-29 16:31 1.0M
20260429T12Z_MSC_GDPS_WindU_AGL-40m_LatLon0.15_PT126H.grib2 2026-04-29 16:31 969K
20260429T12Z_MSC_GDPS_WindU_AGL-80m_LatLon0.15_PT126H.grib2 2026-04-29 16:31 1.0M
20260429T12Z_MSC_GDPS_WindU_IsbL-0001_LatLon0.15_PT126H.grib2 2026-04-29 16:31 500K
20260429T12Z_MSC_GDPS_WindU_IsbL-0005_LatLon0.15_PT126H.grib2 2026-04-29 16:31 688K
20260429T12Z_MSC_GDPS_WindU_IsbL-0010_LatLon0.15_PT126H.grib2 2026-04-29 16:31 700K
20260429T12Z_MSC_GDPS_WindU_IsbL-0020_LatLon0.15_PT126H.grib2 2026-04-29 16:31 731K
20260429T12Z_MSC_GDPS_WindU_IsbL-0030_LatLon0.15_PT126H.grib2 2026-04-29 16:31 740K
20260429T12Z_MSC_GDPS_WindU_IsbL-0050_LatLon0.15_PT126H.grib2 2026-04-29 16:31 696K
20260429T12Z_MSC_GDPS_WindU_IsbL-0100_LatLon0.15_PT126H.grib2 2026-04-29 16:31 866K
20260429T12Z_MSC_GDPS_WindU_IsbL-0150_LatLon0.15_PT126H.grib2 2026-04-29 16:31 1.0M
20260429T12Z_MSC_GDPS_WindU_IsbL-0175_LatLon0.15_PT126H.grib2 2026-04-29 16:31 1.0M
20260429T12Z_MSC_GDPS_WindU_IsbL-0200_LatLon0.15_PT126H.grib2 2026-04-29 16:31 1.1M
20260429T12Z_MSC_GDPS_WindU_IsbL-0225_LatLon0.15_PT126H.grib2 2026-04-29 16:31 856K
20260429T12Z_MSC_GDPS_WindU_IsbL-0250_LatLon0.15_PT126H.grib2 2026-04-29 16:31 857K
20260429T12Z_MSC_GDPS_WindU_IsbL-0275_LatLon0.15_PT126H.grib2 2026-04-29 16:31 886K
20260429T12Z_MSC_GDPS_WindU_IsbL-0300_LatLon0.15_PT126H.grib2 2026-04-29 16:31 878K
20260429T12Z_MSC_GDPS_WindU_IsbL-0350_LatLon0.15_PT126H.grib2 2026-04-29 16:31 895K
20260429T12Z_MSC_GDPS_WindU_IsbL-0400_LatLon0.15_PT126H.grib2 2026-04-29 16:31 896K
20260429T12Z_MSC_GDPS_WindU_IsbL-0450_LatLon0.15_PT126H.grib2 2026-04-29 16:31 898K
20260429T12Z_MSC_GDPS_WindU_IsbL-0500_LatLon0.15_PT126H.grib2 2026-04-29 16:31 1.1M
20260429T12Z_MSC_GDPS_WindU_IsbL-0550_LatLon0.15_PT126H.grib2 2026-04-29 16:31 1.1M
20260429T12Z_MSC_GDPS_WindU_IsbL-0600_LatLon0.15_PT126H.grib2 2026-04-29 16:31 1.2M
20260429T12Z_MSC_GDPS_WindU_IsbL-0650_LatLon0.15_PT126H.grib2 2026-04-29 16:31 1.2M
20260429T12Z_MSC_GDPS_WindU_IsbL-0700_LatLon0.15_PT126H.grib2 2026-04-29 16:31 1.2M
20260429T12Z_MSC_GDPS_WindU_IsbL-0750_LatLon0.15_PT126H.grib2 2026-04-29 16:31 1.3M
20260429T12Z_MSC_GDPS_WindU_IsbL-0800_LatLon0.15_PT126H.grib2 2026-04-29 16:31 1.4M
20260429T12Z_MSC_GDPS_WindU_IsbL-0850_LatLon0.15_PT126H.grib2 2026-04-29 16:31 1.4M
20260429T12Z_MSC_GDPS_WindU_IsbL-0875_LatLon0.15_PT126H.grib2 2026-04-29 16:31 1.5M
20260429T12Z_MSC_GDPS_WindU_IsbL-0900_LatLon0.15_PT126H.grib2 2026-04-29 16:31 1.5M
20260429T12Z_MSC_GDPS_WindU_IsbL-0925_LatLon0.15_PT126H.grib2 2026-04-29 16:31 1.5M
20260429T12Z_MSC_GDPS_WindU_IsbL-0950_LatLon0.15_PT126H.grib2 2026-04-29 16:31 1.4M
20260429T12Z_MSC_GDPS_WindU_IsbL-0970_LatLon0.15_PT126H.grib2 2026-04-29 16:31 1.4M
20260429T12Z_MSC_GDPS_WindU_IsbL-0985_LatLon0.15_PT126H.grib2 2026-04-29 16:31 1.4M
20260429T12Z_MSC_GDPS_WindU_IsbL-1000_LatLon0.15_PT126H.grib2 2026-04-29 16:31 1.4M
20260429T12Z_MSC_GDPS_WindU_IsbL-1015_LatLon0.15_PT126H.grib2 2026-04-29 16:31 1.3M
20260429T12Z_MSC_GDPS_WindV_AGL-10m_LatLon0.15_PT126H.grib2 2026-04-29 16:31 1.6M
20260429T12Z_MSC_GDPS_WindV_AGL-120m_LatLon0.15_PT126H.grib2 2026-04-29 16:31 1.0M
20260429T12Z_MSC_GDPS_WindV_AGL-40m_LatLon0.15_PT126H.grib2 2026-04-29 16:31 1.2M
20260429T12Z_MSC_GDPS_WindV_AGL-80m_LatLon0.15_PT126H.grib2 2026-04-29 16:31 1.0M
20260429T12Z_MSC_GDPS_WindV_IsbL-0001_LatLon0.15_PT126H.grib2 2026-04-29 16:31 780K
20260429T12Z_MSC_GDPS_WindV_IsbL-0005_LatLon0.15_PT126H.grib2 2026-04-29 16:31 855K
20260429T12Z_MSC_GDPS_WindV_IsbL-0010_LatLon0.15_PT126H.grib2 2026-04-29 16:31 810K
20260429T12Z_MSC_GDPS_WindV_IsbL-0020_LatLon0.15_PT126H.grib2 2026-04-29 16:31 859K
20260429T12Z_MSC_GDPS_WindV_IsbL-0030_LatLon0.15_PT126H.grib2 2026-04-29 16:31 859K
20260429T12Z_MSC_GDPS_WindV_IsbL-0050_LatLon0.15_PT126H.grib2 2026-04-29 16:31 903K
20260429T12Z_MSC_GDPS_WindV_IsbL-0100_LatLon0.15_PT126H.grib2 2026-04-29 16:31 1.1M
20260429T12Z_MSC_GDPS_WindV_IsbL-0150_LatLon0.15_PT126H.grib2 2026-04-29 16:31 1.0M
20260429T12Z_MSC_GDPS_WindV_IsbL-0175_LatLon0.15_PT126H.grib2 2026-04-29 16:31 1.0M
20260429T12Z_MSC_GDPS_WindV_IsbL-0200_LatLon0.15_PT126H.grib2 2026-04-29 16:31 839K
20260429T12Z_MSC_GDPS_WindV_IsbL-0225_LatLon0.15_PT126H.grib2 2026-04-29 16:31 849K
20260429T12Z_MSC_GDPS_WindV_IsbL-0250_LatLon0.15_PT126H.grib2 2026-04-29 16:31 849K
20260429T12Z_MSC_GDPS_WindV_IsbL-0275_LatLon0.15_PT126H.grib2 2026-04-29 16:31 934K
20260429T12Z_MSC_GDPS_WindV_IsbL-0300_LatLon0.15_PT126H.grib2 2026-04-29 16:31 925K
20260429T12Z_MSC_GDPS_WindV_IsbL-0350_LatLon0.15_PT126H.grib2 2026-04-29 16:31 880K
20260429T12Z_MSC_GDPS_WindV_IsbL-0400_LatLon0.15_PT126H.grib2 2026-04-29 16:31 882K
20260429T12Z_MSC_GDPS_WindV_IsbL-0450_LatLon0.15_PT126H.grib2 2026-04-29 16:31 1.1M
20260429T12Z_MSC_GDPS_WindV_IsbL-0500_LatLon0.15_PT126H.grib2 2026-04-29 16:31 1.1M
20260429T12Z_MSC_GDPS_WindV_IsbL-0550_LatLon0.15_PT126H.grib2 2026-04-29 16:31 1.1M
20260429T12Z_MSC_GDPS_WindV_IsbL-0600_LatLon0.15_PT126H.grib2 2026-04-29 16:31 1.1M
20260429T12Z_MSC_GDPS_WindV_IsbL-0650_LatLon0.15_PT126H.grib2 2026-04-29 16:31 1.2M
20260429T12Z_MSC_GDPS_WindV_IsbL-0700_LatLon0.15_PT126H.grib2 2026-04-29 16:31 1.2M
20260429T12Z_MSC_GDPS_WindV_IsbL-0750_LatLon0.15_PT126H.grib2 2026-04-29 16:31 1.3M
20260429T12Z_MSC_GDPS_WindV_IsbL-0800_LatLon0.15_PT126H.grib2 2026-04-29 16:31 1.3M
20260429T12Z_MSC_GDPS_WindV_IsbL-0850_LatLon0.15_PT126H.grib2 2026-04-29 16:31 1.4M
20260429T12Z_MSC_GDPS_WindV_IsbL-0875_LatLon0.15_PT126H.grib2 2026-04-29 16:31 1.5M
20260429T12Z_MSC_GDPS_WindV_IsbL-0900_LatLon0.15_PT126H.grib2 2026-04-29 16:31 1.5M
20260429T12Z_MSC_GDPS_WindV_IsbL-0925_LatLon0.15_PT126H.grib2 2026-04-29 16:31 1.5M
20260429T12Z_MSC_GDPS_WindV_IsbL-0950_LatLon0.15_PT126H.grib2 2026-04-29 16:31 1.4M
20260429T12Z_MSC_GDPS_WindV_IsbL-0970_LatLon0.15_PT126H.grib2 2026-04-29 16:31 1.4M
20260429T12Z_MSC_GDPS_WindV_IsbL-0985_LatLon0.15_PT126H.grib2 2026-04-29 16:31 1.4M
20260429T12Z_MSC_GDPS_WindV_IsbL-1000_LatLon0.15_PT126H.grib2 2026-04-29 16:31 1.7M
20260429T12Z_MSC_GDPS_WindV_IsbL-1015_LatLon0.15_PT126H.grib2 2026-04-29 16:31 1.6M